Regional Weather Roundup
Issued by NWS

Home | Current Version | Previous Version | Graphics & Text | Print | Product List | Glossary On
Versions: 1 2 3 4 5 6 7 8 9 10 11 12 13 14 15 16 17 18 19 20 21 22 23 24 25 26 27 28 29 30 31 32 33 34 35 36 37 38 39 40 41 42 43 44 45 46 47 48 49 50
000
ASUS43 KLOT 260110
RWRIL

ILLINOIS REGIONAL WEATHER ROUNDUP
NATIONAL WEATHER SERVICE CHICAGO/ROMEOVILLE IL
800 PM CDT SAT OCT 25 2014

NOTE: "FAIR" INDICATES FEW OR NO CLOUDS BELOW 12,000 FEET WITH NO
SIGNIFICANT WEATHER AND/OR OBSTRUCTIONS TO VISIBILITY.

* THESE STATIONS ARE NOT UNDER NWS QUALITY CONTROL. THEY ALSO MAY NOT
  REPORT WEATHER SUCH AS PRECIPITATION OR FOG.

ILZ001-002-007-009-015-016-024-260200-
NORTHWEST ILLINOIS

CITY           SKY/WX    TMP DP  RH WIND       PRES   REMARKS
MOLINE         CLEAR     54  36  50 W7        30.02R
STERLING*      CLEAR     52  36  54 NW8       30.00R
SAVANNA*       CLEAR     61  32  33 NW3       30.00R
$$

ILZ003-004-008-010-011-017-018-260200-
NORTH CENTRAL ILLINOIS

CITY           SKY/WX    TMP DP  RH WIND       PRES   REMARKS
ROCKFORD       CLEAR     57  31  37 NW8       30.00R
FREEPORT*      CLEAR     52  32  46 W6        30.01R
ROCHELLE*      CLEAR     51  33  50 W7        29.99R
DE KALB*       CLEAR     55  32  42 NW7       29.98R
PERU*          CLEAR     58  34  40 W9        29.99S
$$

ILZ005-006-012>014-019>023-260200-
NORTHEAST ILLINOIS

CITY           SKY/WX    TMP DP  RH WIND       PRES   REMARKS
CHICAGO-OHARE  CLEAR     60  29  30 NW10      29.94R
CHICAGO-MIDWAY CLEAR     64  29  26 W10       29.94R
AURORA         CLEAR     49  33  54 W8        29.97R
LANSING*       CLEAR     61  30  31 W6        29.94R
JOLIET*        CLEAR     58  32  37 W5        29.97R
WAUKEGAN       CLEAR     58  26  29 W7        29.93R
DUPAGE AIRPORT CLEAR     59  30  33 W12       29.96R
KANKAKEE*      CLEAR     52  36  53 SW5       29.96S
WHEELING       CLEAR     63  27  25 NW13      29.96R
MORRIS*        CLEAR     54  37  52 W5        29.96S
ROMEOVILLE*    CLEAR     59  29  32 NW7       29.96R
NORTHERLY ISL    N/A     65  27  24 W9          N/A
$$

LMZ740>746-260200-
SOUTHERN LAKE MICHIGAN

STATION/POSITION SKY/WX   TEMP    WIND        PRES    VSBY  WAVE
                          AIR SEA DIR/SP/G                  HT/PER
                          (F)     (DEG/KT/KT) (MB)    (MI)  (FT/S)
SOUTHERN BUOY              58 54  290/ 16/ 17 1012.5R         2/ 4
WAUKEGAN HARBOR            62     300/  9/ 13   N/A
HARRISON CRIB              66     290/ 14/ 18   N/A
BURNHAM HARBOR             65     300/  5/ 13   N/A
CALUMET HARBOR             65     270/  5/  9 1012.5R
MICHIGAN CITY              60     260/ 15/ 17   N/A
$$

ILZ025>027-034>036-040-047-049-050-058-095>099-260200-
WEST-CENTRAL ILLINOIS

CITY           SKY/WX    TMP DP  RH WIND       PRES   REMARKS
QUINCY         CLEAR     64  44  48 NE5       30.03S
GALESBURG*     CLEAR     54  39  57 W6        30.03R
MACOMB*        CLEAR     51  42  71 NW7       30.05S
JACKSONVILLE*  CLEAR     62  47  58 CALM      30.02S
PITTSFIELD*    CLEAR     63  48  58 CALM      30.04S
$$

ILZ028>032-037-038-041>044-048-051>054-059>061-260200-
CENTRAL ILLINOIS

CITY           SKY/WX    TMP DP  RH WIND       PRES   REMARKS
PONTIAC        CLEAR     56  40  53 NW6       29.99R
BLOOMINGTON    CLEAR     62  40  44 W9        30.00S
DECATUR        CLEAR     67  45  45 W7        30.00S
PEORIA         CLEAR     62  40  44 W3        30.01R
LACON*         CLEAR     55  38  52 CALM      29.99S
LINCOLN*       CLEAR     63  42  45 CALM      29.99R
SPRINGFIELD    CLEAR     64  44  48 NW7       30.01R
TAYLORVILLE    CLEAR     59  46  63 W3        30.01R
$$

ILZ033-039-045-046-055>057-062-063-260200-
EAST-CENTRAL ILLINOIS

CITY           SKY/WX    TMP DP  RH WIND       PRES   REMARKS
CHAMPAIGN      CLEAR     57  47  69 W6        29.99R
DANVILLE*      FAIR      61  43  51 W7        29.94S
RANTOUL*       CLEAR     60  43  54 W6        29.98S
MATTOON        CLEAR     62  46  55 W7        29.99R
PARIS*         CLEAR     60  47  63 W6        29.98F
$$

ILZ079-100>102-260200-
SOUTHWEST ILLINOIS

CITY           SKY/WX    TMP DP  RH WIND       PRES   REMARKS
BELLEVILLE     CLEAR     60  56  85 CALM      30.01R
CAHOKIA*       CLEAR     62  55  77 CALM      30.01S
SPARTA*        CLEAR     63  56  76 CALM      30.02S
$$

ILZ064>066-069>071-074>076-080>082-084>086-088>090-092>094-260200-
SOUTH-CENTRAL ILLINOIS

CITY           SKY/WX    TMP DP  RH WIND       PRES   REMARKS
CARBONDALE     CLEAR     59  53  80 CALM      30.01S
CAIRO*         CLEAR     64  59  81 CALM      30.02S
EFFINGHAM*     CLEAR     59  49  69 CALM      30.00S
MARION         CLEAR     59  55  88 CALM      30.02S
MT. VERNON     CLEAR     55  50  82 CALM      30.02S
CENTRALIA*     CLEAR     59  53  79 CALM      30.02R
SALEM*         CLEAR     62  55  76 CALM      30.01S
METROPOLIS*    CLEAR     63  63 100 CALM      30.01S
$$

ILZ067-068-072-073-078-083-087-091-260200-
SOUTHEAST ILLINOIS

CITY           SKY/WX    TMP DP  RH WIND       PRES   REMARKS
LAWRENCEVILLE  HAZE      63  51  65 W6        29.98F VSB 1
FLORA*         CLEAR     58  52  81 W3        30.01R
FAIRFIELD*     CLEAR     55  52  90 CALM      30.00S
HARRISBURG*    CLEAR     59  55  86 CALM      30.02S FOG
ROBINSON*      CLEAR     63  53  68 W8        29.99S
CARMI*         CLEAR     62  56  83 CALM      30.00S
$$

ABBREVIATIONS USED IN REMARKS
   TC - TEMPERATURE IN CELSIUS
  WCI - WIND CHILL INDEX
   HX - HEAT INDEX
  VSB - VISIBILITY
$$




USA.gov is the U.S. government's official web portal to all federal, state and local government web resources and services.